• In Belarus
  • List of Countries
  • For 7 days
  • Water Temperature
  • Satellite Maps
  • Weather Map
  • Weather Widgets
  • user-avatar
    Login

    Hourly Weather Berat

    Today, 18 February, Monday

    Time Temperature Precipitation Wind Pressure Humidity
    00:00 +8°C° 0 mm 1 mps 751 mmHg 58%
    01:00 +8°C° 0 mm 1 mps 751 mmHg 58%
    02:00 +8°C° 0 mm 1 mps 751 mmHg 57%
    03:00 +8°C° 0 mm 1 mps 751 mmHg 57%
    04:00 +8°C° 0 mm 1 mps 751 mmHg 56%
    05:00 +8°C° 0 mm 1 mps 751 mmHg 56%
    06:00 +8°C° 0 mm 1 mps 751 mmHg 56%
    07:00 +8°C° 0 mm 1 mps 751 mmHg 56%
    08:00 +10°C° 0 mm 1 mps 751 mmHg 51%
    09:00 +12°C° 0 mm 1 mps 751 mmHg 45%
    10:00 +13°C° 0 mm 0 mps 751 mmHg 39%
    11:00 +15°C° 0 mm 1 mps 750 mmHg 38%
    12:00 +16°C° 0 mm 1 mps 750 mmHg 38%
    13:00 +17°C° 0 mm 2 mps 750 mmHg 37%
    14:00 +16°C° 0 mm 2 mps 750 mmHg 41%
    15:00 +16°C° 0 mm 2 mps 749 mmHg 45%
    16:00 +15°C° 0 mm 2 mps 749 mmHg 49%
    17:00 +14°C° 0 mm 1 mps 749 mmHg 56%
    18:00 +12°C° 0 mm 1 mps 749 mmHg 64%
    19:00 +9°C° 0 mm 0 mps 749 mmHg 71%
    20:00 +9°C° 0 mm 0 mps 749 mmHg 71%
    21:00 +10°C° 0 mm 1 mps 750 mmHg 71%
    22:00 +9°C° 0 mm 1 mps 750 mmHg 72%
    23:00 +9°C° 0 mm 1 mps 750 mmHg 71%

    Tomorrow, 19 February, Tuesday

    Time Temperature Precipitation Wind Pressure Humidity
    00:00 +9°C° 0 mm 1 mps 750 mmHg 71%
    01:00 +9°C° 0 mm 1 mps 750 mmHg 70%
    02:00 +9°C° 0 mm 1 mps 750 mmHg 70%
    03:00 +8°C° 0 mm 1 mps 749 mmHg 71%
    04:00 +8°C° 0 mm 1 mps 749 mmHg 71%
    05:00 +8°C° 0 mm 1 mps 749 mmHg 71%
    06:00 +8°C° 0 mm 1 mps 749 mmHg 71%
    07:00 +8°C° 0 mm 1 mps 749 mmHg 72%
    08:00 +10°C° 0 mm 1 mps 750 mmHg 65%
    09:00 +12°C° 0 mm 1 mps 750 mmHg 59%
    10:00 +14°C° 0 mm 1 mps 750 mmHg 52%
    11:00 +14°C° 0 mm 1 mps 749 mmHg 50%
    12:00 +15°C° 0 mm 1 mps 749 mmHg 48%
    13:00 +16°C° 0 mm 2 mps 749 mmHg 45%
    14:00 +15°C° 0 mm 2 mps 749 mmHg 49%
    15:00 +15°C° 0 mm 2 mps 748 mmHg 53%
    16:00 +15°C° 0 mm 2 mps 748 mmHg 56%
    17:00 +13°C° 0 mm 2 mps 748 mmHg 65%
    18:00 +12°C° 0 mm 1 mps 749 mmHg 74%
    19:00 +9°C° 0 mm 0 mps 749 mmHg 83%
    20:00 +9°C° 0 mm 0 mps 749 mmHg 84%
    21:00 +8°C° 0 mm 0 mps 749 mmHg 86%
    22:00 +8°C° 0 mm 0 mps 749 mmHg 87%
    23:00 +8°C° 0 mm 0 mps 749 mmHg 87%

    Day after tomorrow, 20 February, Wednesday

    Time Temperature Precipitation Wind Pressure Humidity
    00:00 +7°C° 0 mm 0 mps 749 mmHg 87%
    01:00 +8°C° 0 mm 1 mps 749 mmHg 87%
    02:00 +8°C° 0 mm 1 mps 749 mmHg 87%
    03:00 +8°C° 0 mm 1 mps 749 mmHg 86%
    04:00 +7°C° 0 mm 1 mps 749 mmHg 86%
    05:00 +7°C° 0 mm 1 mps 749 mmHg 85%
    06:00 +7°C° 0 mm 1 mps 749 mmHg 83%
    07:00 +7°C° 0 mm 1 mps 749 mmHg 82%
    08:00 +9°C° 0 mm 1 mps 749 mmHg 72%
    09:00 +11°C° 0 mm 1 mps 750 mmHg 63%
    10:00 +13°C° 0 mm 1 mps 750 mmHg 53%
    11:00 +13°C° 0 mm 2 mps 750 mmHg 52%
    12:00 +14°C° 0 mm 2 mps 749 mmHg 52%
    13:00 +14°C° 0 mm 3 mps 749 mmHg 51%
    14:00 +13°C° 0 mm 3 mps 749 mmHg 55%
    15:00 +13°C° 0 mm 3 mps 749 mmHg 60%
    16:00 +13°C° 0 mm 3 mps 749 mmHg 64%
    17:00 +12°C° 0 mm 2 mps 749 mmHg 72%
    18:00 +11°C° 0 mm 1 mps 750 mmHg 81%
    19:00 +9°C° 0 mm 0 mps 750 mmHg 89%
    20:00 +9°C° 0 mm 1 mps 750 mmHg 89%
    21:00 +9°C° 0 mm 1 mps 750 mmHg 89%
    22:00 +9°C° 0 mm 1 mps 751 mmHg 90%
    23:00 +8°C° 0 mm 1 mps 751 mmHg 89%

    21 February, Thursday

    Time Temperature Precipitation Wind Pressure Humidity
    00:00 +8°C° 0 mm 1 mps 751 mmHg 88%
    01:00 +8°C° 0 mm 1 mps 751 mmHg 87%
    02:00 +8°C° 0 mm 1 mps 751 mmHg 85%
    03:00 +8°C° 0 mm 1 mps 751 mmHg 83%
    04:00 +7°C° 0 mm 1 mps 751 mmHg 82%
    05:00 +7°C° 0 mm 1 mps 751 mmHg 80%
    06:00 +7°C° 0 mm 1 mps 752 mmHg 77%
    07:00 +7°C° 0 mm 1 mps 752 mmHg 75%
    08:00 +10°C° 0 mm 1 mps 752 mmHg 66%
    09:00 +12°C° 0 mm 1 mps 752 mmHg 58%
    10:00 +14°C° 0 mm 1 mps 752 mmHg 49%
    11:00 +15°C° 0 mm 1 mps 752 mmHg 46%
    12:00 +16°C° 0 mm 2 mps 752 mmHg 43%
    13:00 +17°C° 0 mm 2 mps 752 mmHg 40%
    14:00 +16°C° 0 mm 2 mps 751 mmHg 44%
    15:00 +16°C° 0 mm 3 mps 751 mmHg 49%
    16:00 +14°C° 0 mm 3 mps 751 mmHg 53%
    17:00 +13°C° 0 mm 2 mps 751 mmHg 61%
    18:00 +12°C° 0 mm 1 mps 752 mmHg 68%
    19:00 +9°C° 0 mm 0 mps 752 mmHg 76%
    20:00 +9°C° 0 mm 0 mps 752 mmHg 76%
    21:00 +8°C° 0 mm 0 mps 752 mmHg 77%
    22:00 +9°C° 0 mm 1 mps 752 mmHg 77%
    23:00 +9°C° 0 mm 1 mps 752 mmHg 77%

    22 February, Friday

    Time Temperature Precipitation Wind Pressure Humidity
    00:00 +8°C° 0 mm 1 mps 752 mmHg 77%
    01:00 +8°C° 0 mm 1 mps 752 mmHg 77%
    02:00 +8°C° 0 mm 1 mps 751 mmHg 78%
    03:00 +8°C° 0 mm 1 mps 751 mmHg 78%
    04:00 +8°C° 0 mm 1 mps 751 mmHg 78%
    05:00 +8°C° 0 mm 1 mps 751 mmHg 78%
    06:00 +8°C° 0 mm 1 mps 751 mmHg 77%
    07:00 +8°C° 0 mm 1 mps 751 mmHg 77%
    08:00 +10°C° 0 mm 1 mps 750 mmHg 70%
    09:00 +11°C° 0 mm 1 mps 750 mmHg 62%
    10:00 +13°C° 0 mm 1 mps 750 mmHg 55%
    11:00 +14°C° 0 mm 2 mps 749 mmHg 53%
    12:00 +14°C° 0 mm 3 mps 749 mmHg 51%
    13:00 +14°C° 0 mm 3 mps 748 mmHg 49%
    14:00 +14°C° 0 mm 3 mps 748 mmHg 52%
    15:00 +13°C° 0 mm 3 mps 747 mmHg 55%
    16:00 +13°C° 0 mm 3 mps 747 mmHg 58%
    17:00 +13°C° 0 mm 2 mps 747 mmHg 63%
    18:00 +12°C° 0 mm 2 mps 747 mmHg 68%
    19:00 +10°C° 0 mm 1 mps 747 mmHg 73%
    20:00 +10°C° 0 mm 1 mps 748 mmHg 71%
    21:00 +10°C° 0 mm 1 mps 748 mmHg 70%
    22:00 +8°C° 0 mm 2 mps 748 mmHg 69%
    23:00 +8°C° 0 mm 2 mps 748 mmHg 69%

    23 February, Saturday

    Time Temperature Precipitation Wind Pressure Humidity
    00:00 +7°C° 0 mm 2 mps 749 mmHg 69%
    01:00 +7°C° 0 mm 2 mps 749 mmHg 69%
    02:00 +7°C° 0 mm 2 mps 749 mmHg 70%
    03:00 +6°C° 0 mm 2 mps 749 mmHg 70%
    04:00 +6°C° 0 mm 2 mps 749 mmHg 70%
    05:00 +6°C° 0 mm 2 mps 750 mmHg 70%
    06:00 +6°C° 0 mm 2 mps 750 mmHg 69%
    07:00 +6°C° 0 mm 2 mps 751 mmHg 69%
    08:00 +7°C° 0 mm 3 mps 752 mmHg 59%
    09:00 +7°C° 0 mm 4 mps 752 mmHg 50%
    10:00 +8°C° 0 mm 6 mps 753 mmHg 40%
    11:00 +9°C° 0 mm 5 mps 753 mmHg 34%
    12:00 +9°C° 0 mm 5 mps 753 mmHg 27%
    13:00 +9°C° 0 mm 5 mps 753 mmHg 20%
    14:00 +9°C° 0 mm 5 mps 753 mmHg 21%
    15:00 +10°C° 0 mm 4 mps 753 mmHg 22%
    16:00 +8°C° 0 mm 4 mps 753 mmHg 23%
    17:00 +8°C° 0 mm 3 mps 754 mmHg 27%
    18:00 +5°C° 0 mm 3 mps 754 mmHg 30%
    19:00 +5°C° 0 mm 2 mps 754 mmHg 33%
    20:00 +4°C° 0 mm 2 mps 754 mmHg 34%
    21:00 +4°C° 0 mm 2 mps 754 mmHg 35%
    22:00 +4°C° 0 mm 2 mps 754 mmHg 36%
    23:00 +3°C° 0 mm 2 mps 753 mmHg 35%
    Show more